#Datum;Uhrzeit;WR;Pac;DaySum;Status;WR;Pac;DaySum;Status;Pdc1;Udc;Temp;WR;Pac;DaySum;Status;Pdc1;Udc;Temp;WR;Pac;DaySum;Status;Pdc1;Udc;Temp;WR;Pac;DaySum;Status;Pdc1;Pdc2;Udc1;Udc2;Temp;WR;Pac;DaySum;Status;Pdc1;Pdc2;Udc1;Udc2;Temp;WR;Pac;DaySum;Status;Pdc1;Udc;Temp;WR;Pac;DaySum;Status;Pdc1;Udc;Temp;WR;Pac;DaySum;Status;Pdc1;Udc;Temp
11.11.19;23:55:00;1;284;11206;0;2;0;2574;0;0;0;0;3;0;1552;0;0;0;0;4;0;2142;0;0;0;0;5;0;5677;0;0;0;0;0;0;6;0;3942;0;0;0;0;0;0;7;0;2586;0;0;0;0;8;0;2616;0;0;0;0;9;0;1383;0;0;0;0
11.11.19;23:50:00;1;220;11185;0;2;0;2574;0;0;0;0;3;0;1552;0;0;0;0;4;0;2142;0;0;0;0;5;0;5677;0;0;0;0;0;0;6;0;3942;0;0;0;0;0;0;7;0;2586;0;0;0;0;8;0;2616;0;0;0;0;9;0;1383;0;0;0;0
11.11.19;23:45:00;1;238;11167;0;2;0;2574;0;0;0;0;3;0;1552;0;0;0;0;4;0;2142;0;0;0;0;5;0;5677;0;0;0;0;0;0;6;0;3942;0;0;0;0;0;0;7;0;2586;0;0;0;0;8;0;2616;0;0;0;0;9;0;1383;0;0;0;0
11.11.19;23:40:00;1;261;11146;0;2;0;2574;0;0;0;0;3;0;1552;0;0;0;0;4;0;2142;0;0;0;0;5;0;5677;0;0;0;0;0;0;6;0;3942;0;0;0;0;0;0;7;0;2586;0;0;0;0;8;0;2616;0;0;0;0;9;0;1383;0;0;0;0
11.11.19;23:35:00;1;328;11124;0;2;0;2574;0;0;0;0;3;0;1552;0;0;0;0;4;0;2142;0;0;0;0;5;0;5677;0;0;0;0;0;0;6;0;3942;0;0;0;0;0;0;7;0;2586;0;0;0;0;8;0;2616;0;0;0;0;9;0;1383;0;0;0;0
11.11.19;23:30:00;1;314;11097;0;2;0;2574;0;0;0;0;3;0;1552;0;0;0;0;4;0;2142;0;0;0;0;5;0;5677;0;0;0;0;0;0;6;0;3942;0;0;0;0;0;0;7;0;2586;0;0;0;0;8;0;2616;0;0;0;0;9;0;1383;0;0;0;0
11.11.19;23:25:00;1;287;11070;0;2;0;2574;0;0;0;0;3;0;1552;0;0;0;0;4;0;2142;0;0;0;0;5;0;5677;0;0;0;0;0;0;6;0;3942;0;0;0;0;0;0;7;0;2586;0;0;0;0;8;0;2616;0;0;0;0;9;0;1383;0;0;0;0
11.11.19;23:20:00;1;314;11046;0;2;0;2574;0;0;0;0;3;0;1552;0;0;0;0;4;0;2142;0;0;0;0;5;0;5677;0;0;0;0;0;0;6;0;3942;0;0;0;0;0;0;7;0;2586;0;0;0;0;8;0;2616;0;0;0;0;9;0;1383;0;0;0;0
11.11.19;23:15:00;1;324;11019;0;2;0;2574;0;0;0;0;3;0;1552;0;0;0;0;4;0;2142;0;0;0;0;5;0;5677;0;0;0;0;0;0;6;0;3942;0;0;0;0;0;0;7;0;2586;0;0;0;0;8;0;2616;0;0;0;0;9;0;1383;0;0;0;0
11.11.19;23:10:00;1;337;10991;0;2;0;2574;0;0;0;0;3;0;1552;0;0;0;0;4;0;2142;0;0;0;0;5;0;5677;0;0;0;0;0;0;6;0;3942;0;0;0;0;0;0;7;0;2586;0;0;0;0;8;0;2616;0;0;0;0;9;0;1383;0;0;0;0
11.11.19;23:05:00;1;324;10963;0;2;0;2574;0;0;0;0;3;0;1552;0;0;0;0;4;0;2142;0;0;0;0;5;0;5677;0;0;0;0;0;0;6;0;3942;0;0;0;0;0;0;7;0;2586;0;0;0;0;8;0;2616;0;0;0;0;9;0;1383;0;0;0;0
11.11.19;23:00:00;1;253;10937;0;2;0;2574;0;0;0;0;3;0;1552;0;0;0;0;4;0;2142;0;0;0;0;5;0;5677;0;0;0;0;0;0;6;0;3942;0;0;0;0;0;0;7;0;2586;0;0;0;0;8;0;2616;0;0;0;0;9;0;1383;0;0;0;0
11.11.19;22:55:00;1;373;10915;0;2;0;2574;0;0;0;0;3;0;1552;0;0;0;0;4;0;2142;0;0;0;0;5;0;5677;2;0;0;0;0;0;6;0;3942;2;0;0;0;0;0;7;0;2586;0;0;0;0;8;0;2616;0;0;0;0;9;0;1383;0;0;0;0
11.11.19;22:50:00;1;328;10884;0;2;0;2574;0;0;0;0;3;0;1552;0;0;0;0;4;0;2142;0;0;0;0;5;0;5677;2;0;0;0;0;0;6;0;3942;2;0;0;0;0;0;7;0;2586;0;0;0;0;8;0;2616;0;0;0;0;9;0;1383;0;0;0;0
11.11.19;22:45:00;1;1060;10857;0;2;0;2574;0;0;0;0;3;0;1552;0;0;0;0;4;0;2142;0;0;0;0;5;0;5677;2;0;0;0;0;0;6;0;3942;2;0;0;0;0;0;7;0;2586;0;0;0;0;8;0;2616;0;0;0;0;9;0;1383;0;0;0;0
11.11.19;22:40:00;1;382;10765;0;2;0;2574;0;0;0;0;3;0;1552;0;0;0;0;4;0;2142;0;0;0;0;5;0;5677;2;0;0;0;0;0;6;0;3942;2;0;0;0;0;0;7;0;2586;0;0;0;0;8;0;2616;0;0;0;0;9;0;1383;0;0;0;0
11.11.19;22:35:00;1;420;10732;0;2;0;2574;0;0;0;0;3;0;1552;0;0;0;0;4;0;2142;0;0;0;0;5;0;5677;2;0;0;0;0;0;6;0;3942;2;0;0;0;0;0;7;0;2586;0;0;0;0;8;0;2616;0;0;0;0;9;0;1383;0;0;0;0
11.11.19;22:30:00;1;435;10697;0;2;0;2574;0;0;0;0;3;0;1552;0;0;0;0;4;0;2142;0;0;0;0;5;0;5677;2;0;0;0;0;0;6;0;3942;2;0;0;0;0;0;7;0;2586;0;0;0;0;8;0;2616;0;0;0;0;9;0;1383;0;0;0;0
11.11.19;22:25:00;1;485;10660;0;2;0;2574;0;0;0;0;3;0;1552;0;0;0;0;4;0;2142;0;0;0;0;5;0;5677;2;0;0;0;0;0;6;0;3942;2;0;0;0;0;0;7;0;2586;0;0;0;0;8;0;2616;0;0;0;0;9;0;1383;0;0;0;0
11.11.19;22:20:00;1;539;10619;0;2;0;2574;0;0;0;0;3;0;1552;0;0;0;0;4;0;2142;0;0;0;0;5;0;5677;2;0;0;0;0;0;6;0;3942;2;0;0;0;0;0;7;0;2586;0;0;0;0;8;0;2616;0;0;0;0;9;0;1383;0;0;0;0
11.11.19;22:15:00;1;593;10573;0;2;0;2574;0;0;0;0;3;0;1552;0;0;0;0;4;0;2142;0;0;0;0;5;0;5677;2;0;0;0;0;0;6;0;3942;2;0;0;0;0;0;7;0;2586;0;0;0;0;8;0;2616;0;0;0;0;9;0;1383;0;0;0;0
11.11.19;22:10:00;1;641;10523;0;2;0;2574;0;0;0;0;3;0;1552;0;0;0;0;4;0;2142;0;0;0;0;5;0;5677;2;0;0;0;0;0;6;0;3942;2;0;0;0;0;0;7;0;2586;0;0;0;0;8;0;2616;0;0;0;0;9;0;1383;0;0;0;0
11.11.19;22:05:00;1;660;10470;0;2;0;2574;0;0;0;0;3;0;1552;0;0;0;0;4;0;2142;0;0;0;0;5;0;5677;2;0;0;0;0;0;6;0;3942;2;0;0;0;0;0;7;0;2586;0;0;0;0;8;0;2616;0;0;0;0;9;0;1383;0;0;0;0
11.11.19;22:00:00;1;715;10415;0;2;0;2574;0;0;0;0;3;0;1552;0;0;0;0;4;0;2142;0;0;0;0;5;0;5677;2;0;0;0;0;0;6;0;3942;2;0;0;0;0;0;7;0;2586;0;0;0;0;8;0;2616;0;0;0;0;9;0;1383;0;0;0;0
11.11.19;21:55:00;1;699;10355;0;2;0;2574;0;0;0;0;3;0;1552;0;0;0;0;4;0;2142;0;0;0;0;5;0;5677;2;0;0;0;0;0;6;0;3942;2;0;0;0;0;0;7;0;2586;0;0;0;0;8;0;2616;0;0;0;0;9;0;1383;0;0;0;0
11.11.19;21:50:00;1;2032;10297;0;2;0;2574;0;0;0;0;3;0;1552;0;0;0;0;4;0;2142;0;0;0;0;5;0;5677;2;0;0;0;0;0;6;0;3942;2;0;0;0;0;0;7;0;2586;0;0;0;0;8;0;2616;0;0;0;0;9;0;1383;0;0;0;0
11.11.19;21:45:00;1;2574;10120;0;2;0;2574;0;0;0;0;3;0;1552;0;0;0;0;4;0;2142;0;0;0;0;5;0;5677;2;0;0;0;0;0;6;0;3942;2;0;0;0;0;0;7;0;2586;0;0;0;0;8;0;2616;0;0;0;0;9;0;1383;0;0;0;0
11.11.19;21:40:00;1;2627;9905;0;2;0;2574;0;0;0;0;3;0;1552;0;0;0;0;4;0;2142;0;0;0;0;5;0;5677;2;0;0;0;0;0;6;0;3942;2;0;0;0;0;0;7;0;2586;0;0;0;0;8;0;2616;0;0;0;0;9;0;1383;0;0;0;0
11.11.19;21:35:00;1;980;9692;0;2;0;2574;0;0;0;0;3;0;1552;0;0;0;0;4;0;2142;0;0;0;0;5;0;5677;2;0;0;0;0;0;6;0;3942;2;0;0;0;0;0;7;0;2586;0;0;0;0;8;0;2616;0;0;0;0;9;0;1383;0;0;0;0
11.11.19;21:30:00;1;1929;9582;0;2;0;2574;0;0;0;0;3;0;1552;0;0;0;0;4;0;2142;0;0;0;0;5;0;5677;2;0;0;0;0;0;6;0;3942;2;0;0;0;0;0;7;0;2586;0;0;0;0;8;0;2616;0;0;0;0;9;0;1383;0;0;0;0
11.11.19;21:25:00;1;826;9454;0;2;0;2574;0;0;0;0;3;0;1552;0;0;0;0;4;0;2142;0;0;0;0;5;0;5677;2;0;0;0;0;0;6;0;3942;2;0;0;0;0;0;7;0;2586;0;0;0;0;8;0;2616;0;0;0;0;9;0;1383;0;0;0;0
11.11.19;21:20:00;1;1074;9383;0;2;0;2574;0;0;0;0;3;0;1552;0;0;0;0;4;0;2142;0;0;0;0;5;0;5677;2;0;0;0;0;0;6;0;3942;2;0;0;0;0;0;7;0;2586;0;0;0;0;8;0;2616;0;0;0;0;9;0;1383;0;0;0;0
11.11.19;21:15:00;1;2752;9292;0;2;0;2574;0;0;0;0;3;0;1552;0;0;0;0;4;0;2142;0;0;0;0;5;0;5677;2;0;0;0;0;0;6;0;3942;2;0;0;0;0;0;7;0;2586;0;0;0;0;8;0;2616;0;0;0;0;9;0;1383;0;0;0;0
11.11.19;21:10:00;1;1499;9044;0;2;0;2574;0;0;0;0;3;0;1552;0;0;0;0;4;0;2142;0;0;0;0;5;0;5677;2;0;0;0;0;0;6;0;3942;2;0;0;0;0;0;7;0;2586;0;0;0;0;8;0;2616;0;0;0;0;9;0;1383;0;0;0;0
11.11.19;21:05:00;1;2065;8946;0;2;0;2574;0;0;0;0;3;0;1552;0;0;0;0;4;0;2142;0;0;0;0;5;0;5677;2;0;0;0;0;0;6;0;3942;2;0;0;0;0;0;7;0;2586;0;0;0;0;8;0;2616;0;0;0;0;9;0;1383;0;0;0;0
11.11.19;21:00:00;1;1892;8754;0;2;0;2574;0;0;0;0;3;0;1552;0;0;0;0;4;0;2142;0;0;0;0;5;0;5677;2;0;0;0;0;0;6;0;3942;2;0;0;0;0;0;7;0;2586;0;0;0;0;8;0;2616;0;0;0;0;9;0;1383;0;0;0;0
11.11.19;20:55:00;1;2641;8599;0;2;0;2574;0;0;0;0;3;0;1552;0;0;0;0;4;0;2142;0;0;0;0;5;0;5677;2;0;0;0;0;0;6;0;3942;2;0;0;0;0;0;7;0;2586;0;0;0;0;8;0;2616;0;0;0;0;9;0;1383;0;0;0;0
11.11.19;20:50:00;1;2647;8366;0;2;0;2574;0;0;0;0;3;0;1552;0;0;0;0;4;0;2142;0;0;0;0;5;0;5677;2;0;0;0;0;0;6;0;3942;2;0;0;0;0;0;7;0;2586;0;0;0;0;8;0;2616;0;0;0;0;9;0;1383;0;0;0;0
11.11.19;20:45:00;1;897;8162;0;2;0;2574;0;0;0;0;3;0;1552;0;0;0;0;4;0;2142;0;0;0;0;5;0;5677;2;0;0;0;0;0;6;0;3942;2;0;0;0;0;0;7;0;2586;0;0;0;0;8;0;2616;0;0;0;0;9;0;1383;0;0;0;0
11.11.19;20:40:00;1;926;8087;0;2;0;2574;0;0;0;0;3;0;1552;0;0;0;0;4;0;2142;0;0;0;0;5;0;5677;2;0;0;0;0;0;6;0;3942;2;0;0;0;0;0;7;0;2586;0;0;0;0;8;0;2616;0;0;0;0;9;0;1383;0;0;0;0
11.11.19;20:35:00;1;814;8011;0;2;0;2574;0;0;0;0;3;0;1552;0;0;0;0;4;0;2142;0;0;0;0;5;0;5677;2;0;0;0;0;0;6;0;3942;2;0;0;0;0;0;7;0;2586;0;0;0;0;8;0;2616;0;0;0;0;9;0;1383;0;0;0;0
11.11.19;20:30:00;1;805;7944;0;2;0;2574;0;0;0;0;3;0;1552;0;0;0;0;4;0;2142;0;0;0;0;5;0;5677;2;0;0;0;0;0;6;0;3942;2;0;0;0;0;0;7;0;2586;0;0;0;0;8;0;2616;0;0;0;0;9;0;1383;0;0;0;0
11.11.19;20:25:00;1;827;7877;0;2;0;2574;0;0;0;0;3;0;1552;0;0;0;0;4;0;2142;0;0;0;0;5;0;5677;2;0;0;0;0;0;6;0;3942;2;0;0;0;0;0;7;0;2586;0;0;0;0;8;0;2616;0;0;0;0;9;0;1383;0;0;0;0
11.11.19;20:20:00;1;830;7807;0;2;0;2574;0;0;0;0;3;0;1552;0;0;0;0;4;0;2142;0;0;0;0;5;0;5677;2;0;0;0;0;0;6;0;3942;2;0;0;0;0;0;7;0;2586;0;0;0;0;8;0;2616;0;0;0;0;9;0;1383;0;0;0;0
11.11.19;20:15:00;1;825;7738;0;2;0;2574;0;0;0;0;3;0;1552;0;0;0;0;4;0;2142;0;0;0;0;5;0;5677;2;0;0;0;0;0;6;0;3942;2;0;0;0;0;0;7;0;2586;0;0;0;0;8;0;2616;0;0;0;0;9;0;1383;0;0;0;0
11.11.19;20:10:00;1;790;7670;0;2;0;2574;0;0;0;0;3;0;1552;0;0;0;0;4;0;2142;0;0;0;0;5;0;5677;2;0;0;0;0;0;6;0;3942;2;0;0;0;0;0;7;0;2586;0;0;0;0;8;0;2616;0;0;0;0;9;0;1383;0;0;0;0
11.11.19;20:05:00;1;829;7602;0;2;0;2574;0;0;0;0;3;0;1552;0;0;0;0;4;0;2142;0;0;0;0;5;0;5677;2;0;0;0;0;0;6;0;3942;2;0;0;0;0;0;7;0;2586;0;0;0;0;8;0;2616;0;0;0;0;9;0;1383;0;0;0;0
11.11.19;20:00:00;1;837;7534;0;2;0;2574;0;0;0;0;3;0;1552;0;0;0;0;4;0;2142;0;0;0;0;5;0;5677;2;0;0;0;0;0;6;0;3942;2;0;0;0;0;0;7;0;2586;0;0;0;0;8;0;2616;0;0;0;0;9;0;1383;0;0;0;0
11.11.19;19:55:00;1;919;7463;0;2;0;2574;0;0;0;0;3;0;1552;0;0;0;0;4;0;2142;0;0;0;0;5;0;5677;2;0;0;0;0;0;6;0;3942;2;0;0;0;0;0;7;0;2586;0;0;0;0;8;0;2616;0;0;0;0;9;0;1383;0;0;0;0
11.11.19;19:50:00;1;995;7387;0;2;0;2574;0;0;0;0;3;0;1552;0;0;0;0;4;0;2142;0;0;0;0;5;0;5677;2;0;0;0;0;0;6;0;3942;2;0;0;0;0;0;7;0;2586;0;0;0;0;8;0;2616;0;0;0;0;9;0;1383;0;0;0;0
11.11.19;19:45:00;1;1126;7303;0;2;0;2574;0;0;0;0;3;0;1552;0;0;0;0;4;0;2142;0;0;0;0;5;0;5677;2;0;0;0;0;0;6;0;3942;2;0;0;0;0;0;7;0;2586;0;0;0;0;8;0;2616;0;0;0;0;9;0;1383;0;0;0;0
11.11.19;19:40:00;1;1163;7209;0;2;0;2574;0;0;0;0;3;0;1552;0;0;0;0;4;0;2142;0;0;0;0;5;0;5677;2;0;0;0;0;0;6;0;3942;2;0;0;0;0;0;7;0;2586;0;0;0;0;8;0;2616;0;0;0;0;9;0;1383;0;0;0;0
11.11.19;19:35:00;1;1259;7111;0;2;0;2574;0;0;0;0;3;0;1552;0;0;0;0;4;0;2142;0;0;0;0;5;0;5677;2;0;0;0;0;0;6;0;3942;2;0;0;0;0;0;7;0;2586;0;0;0;0;8;0;2616;0;0;0;0;9;0;1383;0;0;0;0
11.11.19;19:30:00;1;1433;7006;0;2;0;2574;0;0;0;0;3;0;1552;0;0;0;0;4;0;2142;0;0;0;0;5;0;5677;2;0;0;0;0;0;6;0;3942;2;0;0;0;0;0;7;0;2586;0;0;0;0;8;0;2616;0;0;0;0;9;0;1383;0;0;0;0
11.11.19;19:25:00;1;1462;6886;0;2;0;2574;0;0;0;0;3;0;1552;0;0;0;0;4;0;2142;0;0;0;0;5;0;5677;2;0;0;0;0;0;6;0;3942;2;0;0;0;0;0;7;0;2586;0;0;0;0;8;0;2616;0;0;0;0;9;0;1383;0;0;0;0
11.11.19;19:20:00;1;1103;6765;0;2;0;2574;0;0;0;0;3;0;1552;0;0;0;0;4;0;2142;0;0;0;0;5;0;5677;2;0;0;0;0;0;6;0;3942;2;0;0;0;0;0;7;0;2586;0;0;0;0;8;0;2616;0;0;0;0;9;0;1383;0;0;0;0
11.11.19;19:15:00;1;792;6677;0;2;0;2574;0;0;0;0;3;0;1552;0;0;0;0;4;0;2142;0;0;0;0;5;0;5677;2;0;0;0;0;0;6;0;3942;2;0;0;0;0;0;7;0;2586;0;0;0;0;8;0;2616;0;0;0;0;9;0;1383;0;0;0;0
11.11.19;19:10:00;1;767;6611;0;2;0;2574;0;0;0;0;3;0;1552;0;0;0;0;4;0;2142;0;0;0;0;5;0;5677;2;0;0;0;0;0;6;0;3942;2;0;0;0;0;0;7;0;2586;0;0;0;0;8;0;2616;0;0;0;0;9;0;1383;0;0;0;0
11.11.19;19:05:00;1;816;6546;0;2;0;2574;0;0;0;0;3;0;1552;0;0;0;0;4;0;2142;0;0;0;0;5;0;5677;2;0;0;0;0;0;6;0;3942;2;0;0;0;0;0;7;0;2586;0;0;0;0;8;0;2616;0;0;0;0;9;0;1383;0;0;0;0
11.11.19;19:00:00;1;758;6479;0;2;0;2574;0;0;0;0;3;0;1552;0;0;0;0;4;0;2142;0;0;0;0;5;0;5677;2;0;0;0;0;0;6;0;3942;2;0;0;0;0;0;7;0;2586;0;0;0;0;8;0;2616;0;0;0;0;9;0;1383;0;0;0;0
11.11.19;18:55:00;1;755;6416;0;2;0;2574;0;0;0;0;3;0;1552;0;0;0;0;4;0;2142;0;0;0;0;5;0;5677;2;0;0;0;0;0;6;0;3942;2;0;0;0;0;0;7;0;2586;0;0;0;0;8;0;2616;0;0;0;0;9;0;1383;0;0;0;0
11.11.19;18:50:00;1;786;6352;0;2;0;2574;0;0;0;0;3;0;1552;0;0;0;0;4;0;2142;0;0;0;0;5;0;5677;2;0;0;0;0;0;6;0;3942;2;0;0;0;0;0;7;0;2586;0;0;0;0;8;0;2616;0;0;0;0;9;0;1383;0;0;0;0
11.11.19;18:45:00;1;805;6286;0;2;0;2574;0;0;0;0;3;0;1552;0;0;0;0;4;0;2142;0;0;0;0;5;0;5677;2;0;0;0;0;0;6;0;3942;2;0;0;0;0;0;7;0;2586;0;0;0;0;8;0;2616;0;0;0;0;9;0;1383;0;0;0;0
11.11.19;18:40:00;1;852;6219;0;2;0;2574;0;0;0;0;3;0;1552;0;0;0;0;4;0;2142;0;0;0;0;5;0;5677;2;0;0;0;0;0;6;0;3942;2;0;0;0;0;0;7;0;2586;0;0;0;0;8;0;2616;0;0;0;0;9;0;1383;0;0;0;0
11.11.19;18:35:00;1;821;6148;0;2;0;2574;0;0;0;0;3;0;1552;0;0;0;0;4;0;2142;0;0;0;0;5;0;5677;2;0;0;0;0;0;6;0;3942;2;0;0;0;0;0;7;0;2586;0;0;0;0;8;0;2616;0;0;0;0;9;0;1383;0;0;0;0
11.11.19;18:30:00;1;761;6080;0;2;0;2574;0;0;0;0;3;0;1552;0;0;0;0;4;0;2142;0;0;0;0;5;0;5677;2;0;0;0;0;0;6;0;3942;2;0;0;0;0;0;7;0;2586;0;0;0;0;8;0;2616;0;0;0;0;9;0;1383;0;0;0;0
11.11.19;18:25:00;1;795;6016;0;2;0;2574;0;0;0;0;3;0;1552;0;0;0;0;4;0;2142;0;0;0;0;5;0;5677;2;0;0;0;0;0;6;0;3942;2;0;0;0;0;0;7;0;2586;0;0;0;0;8;0;2616;0;0;0;0;9;0;1383;0;0;0;0
11.11.19;18:20:00;1;684;5952;0;2;0;2574;0;0;0;0;3;0;1552;0;0;0;0;4;0;2142;0;0;0;0;5;0;5677;2;0;0;0;0;0;6;0;3942;2;0;0;0;0;0;7;0;2586;0;0;0;0;8;0;2616;0;0;0;0;9;0;1383;0;0;0;0
11.11.19;18:15:00;1;585;5894;0;2;0;2574;0;0;0;0;3;0;1552;0;0;0;0;4;0;2142;0;0;0;0;5;0;5677;2;0;0;0;0;0;6;0;3942;2;0;0;0;0;0;7;0;2586;0;0;0;0;8;0;2616;0;0;0;0;9;0;1383;0;0;0;0
11.11.19;18:10:00;1;566;5844;0;2;0;2574;0;0;0;0;3;0;1552;0;0;0;0;4;0;2142;0;0;0;0;5;0;5677;2;0;0;0;0;0;6;0;3942;2;0;0;0;0;0;7;0;2586;0;0;0;0;8;0;2616;0;0;0;0;9;0;1383;0;0;0;0
11.11.19;18:05:00;1;550;5797;0;2;0;2574;0;0;0;0;3;0;1552;0;0;0;0;4;0;2142;0;0;0;0;5;0;5677;2;0;0;0;0;0;6;0;3942;2;0;0;0;0;0;7;0;2586;0;0;0;0;8;0;2616;0;0;0;0;9;0;1383;0;0;0;0
11.11.19;18:00:00;1;680;5750;0;2;0;2574;0;0;0;0;3;0;1552;0;0;0;0;4;0;2142;0;0;0;0;5;0;5677;2;0;0;0;0;0;6;0;3942;2;0;0;0;0;0;7;0;2586;0;0;0;0;8;0;2616;0;0;0;0;9;0;1383;0;0;0;0
11.11.19;17:55:00;1;682;5693;0;2;0;2574;0;0;0;0;3;0;1552;0;0;0;0;4;0;2142;0;0;0;0;5;0;5677;2;0;0;0;0;0;6;0;3942;2;0;0;0;0;0;7;0;2586;0;0;0;0;8;0;2616;0;0;0;0;9;0;1383;0;0;0;0
11.11.19;17:50:00;1;2746;5636;0;2;0;2574;0;0;0;0;3;0;1552;0;0;0;0;4;0;2142;0;0;0;0;5;0;5677;2;0;0;0;0;0;6;0;3942;2;0;0;0;0;0;7;0;2586;0;0;0;0;8;0;2616;0;0;0;0;9;0;1383;0;0;0;0
11.11.19;17:45:00;1;2773;5407;0;2;0;2574;0;0;0;0;3;0;1552;0;0;0;0;4;0;2142;0;0;0;0;5;0;5677;2;0;0;0;0;0;6;0;3942;2;0;0;0;0;0;7;0;2586;0;0;0;0;8;0;2616;0;0;0;0;9;0;1383;0;0;0;0
11.11.19;17:40:00;1;2710;5176;0;2;0;2574;0;0;0;0;3;0;1552;0;0;0;0;4;0;2142;0;0;0;0;5;0;5677;2;0;0;0;0;0;6;0;3942;2;0;0;0;0;0;7;0;2586;0;0;0;0;8;0;2616;0;0;0;0;9;0;1383;0;0;0;0
11.11.19;17:35:00;1;2560;4950;0;2;0;2574;0;0;0;0;3;0;1552;0;0;0;0;4;0;2142;0;0;0;0;5;0;5677;2;0;0;0;0;0;6;0;3942;2;0;0;0;0;0;7;0;2586;0;0;0;0;8;0;2616;0;0;0;0;9;0;1383;0;0;0;0
11.11.19;17:30:00;1;478;4762;0;2;0;2574;0;0;0;0;3;0;1552;0;0;0;0;4;0;2142;0;0;0;0;5;0;5677;2;0;0;0;0;0;6;0;3942;2;0;0;0;0;0;7;0;2586;0;0;0;0;8;0;2616;0;0;0;0;9;0;1383;0;0;0;0
11.11.19;17:25:00;1;515;4721;0;2;0;2574;0;0;0;0;3;0;1552;0;0;0;0;4;0;2142;0;0;0;0;5;0;5677;2;0;0;0;0;0;6;0;3942;2;0;0;0;0;0;7;0;2586;0;0;0;0;8;0;2616;0;0;0;0;9;0;1383;0;0;0;0
11.11.19;17:20:00;1;530;4678;0;2;0;2574;0;0;0;0;3;0;1552;0;0;0;0;4;0;2142;0;0;0;0;5;0;5677;2;0;0;0;0;0;6;0;3942;2;0;0;0;0;0;7;0;2586;0;0;0;0;8;0;2616;0;0;0;0;9;0;1383;0;0;0;0
11.11.19;17:15:00;1;358;4635;0;2;0;2574;0;0;0;0;3;0;1552;0;0;0;0;4;0;2142;0;0;0;0;5;0;5677;2;0;0;0;0;0;6;0;3942;2;0;0;0;0;0;7;0;2586;0;0;0;0;8;0;2616;0;0;0;0;9;0;1383;0;0;0;0
11.11.19;17:10:00;1;378;4604;0;2;0;2574;0;0;0;0;3;0;1552;0;0;0;0;4;0;2142;0;0;0;0;5;0;5677;2;0;0;0;0;0;6;0;3942;2;0;0;0;0;0;7;0;2586;0;0;0;0;8;0;2616;0;0;0;0;9;0;1383;0;0;0;0
11.11.19;17:05:00;1;383;4573;0;2;0;2574;0;0;0;0;3;0;1552;0;0;0;0;4;0;2142;0;0;0;0;5;0;5677;2;0;0;0;0;0;6;0;3942;2;0;0;0;0;0;7;0;2586;0;0;0;0;8;0;2616;0;0;0;0;9;0;1383;0;0;0;0
11.11.19;17:00:00;1;371;4541;0;2;0;2574;0;0;0;0;3;0;1552;0;0;0;0;4;0;2142;0;0;0;0;5;0;5677;2;0;0;0;0;0;6;0;3942;2;0;0;0;0;0;7;0;2586;0;0;0;0;8;0;2616;0;0;0;0;9;0;1383;0;0;0;0
11.11.19;16:55:00;1;317;4509;0;2;0;2574;0;0;0;0;3;0;1552;0;0;0;0;4;0;2142;0;0;0;0;5;0;5677;2;0;0;0;0;0;6;0;3942;2;0;0;0;0;0;7;0;2586;0;0;0;0;8;0;2616;0;0;0;0;9;0;1383;0;0;0;0
11.11.19;16:50:00;1;355;4483;0;2;0;2574;0;0;0;0;3;0;1552;0;0;34;2;4;0;2142;0;0;0;0;5;0;5677;2;0;0;0;0;0;6;0;3942;2;0;0;0;0;0;7;0;2586;0;0;0;0;8;0;2616;0;0;0;0;9;0;1383;0;0;0;0
11.11.19;16:45:00;1;426;4451;0;2;0;2574;0;0;177;7;3;0;1552;6;0;286;14;4;0;2142;0;0;0;0;5;0;5677;2;0;0;0;0;0;6;0;3942;2;0;0;0;0;0;7;0;2586;0;0;0;0;8;0;2616;0;0;0;0;9;0;1383;0;0;0;0
11.11.19;16:40:00;1;351;4418;0;2;0;2574;6;0;303;11;3;0;1552;6;0;346;14;4;0;2142;2;0;82;10;5;0;5677;2;0;0;0;0;0;6;0;3942;2;0;0;0;0;1;7;0;2586;0;0;0;0;8;0;2616;0;0;0;0;9;0;1383;0;0;0;0
11.11.19;16:35:00;1;312;4388;0;2;0;2574;6;0;336;11;3;0;1552;6;0;393;14;4;0;2142;1;0;114;10;5;0;5677;2;0;0;283;281;17;6;0;3942;1;4;4;343;144;19;7;0;2586;0;0;49;2;8;0;2616;0;0;50;2;9;0;1383;0;0;105;4
11.11.19;16:30:00;1;520;4358;0;2;0;2574;6;0;364;11;3;0;1552;6;1;433;14;4;0;2142;1;0;152;10;5;0;5677;23;0;1;397;437;22;6;0;3942;23;6;6;237;468;21;7;0;2586;6;0;282;14;8;0;2616;6;0;288;14;9;0;1383;6;0;306;10
11.11.19;16:25:00;1;548;4315;0;2;0;2574;6;0;381;11;3;0;1552;6;4;431;14;4;0;2142;1;0;180;10;5;0;5677;26;0;0;416;601;23;6;0;3942;23;5;6;181;551;21;7;0;2586;6;0;330;15;8;0;2616;6;0;337;14;9;0;1383;6;0;355;10
11.11.19;16:20:00;1;548;4268;0;2;0;2574;6;0;400;11;3;1;1552;6;3;489;14;4;0;2142;1;0;217;11;5;10;5677;23;1;2;419;663;23;6;0;3942;23;2;6;438;580;22;7;0;2586;6;0;400;15;8;0;2616;6;0;388;14;9;0;1383;6;0;431;11
11.11.19;16:15:00;1;502;4223;0;2;0;2574;6;0;412;12;3;1;1552;6;4;499;14;4;0;2142;3;0;213;11;5;73;5675;4;11;15;377;598;24;6;0;3942;1;7;4;433;592;22;7;0;2586;6;2;428;15;8;0;2616;6;2;433;15;9;0;1383;3;2;440;11
11.11.19;16:10:00;1;231;4181;0;2;1;2574;6;4;405;12;3;1;1552;6;4;507;15;4;0;2142;3;0;212;11;5;82;5669;4;14;23;377;599;24;6;0;3942;1;3;6;479;595;23;7;0;2586;6;1;441;15;8;0;2616;6;1;451;15;9;0;1382;6;1;494;11
11.11.19;16:05:00;1;276;4160;0;2;2;2574;6;7;407;12;3;3;1552;3;11;475;15;4;0;2142;3;0;224;11;5;92;5662;4;20;25;377;598;24;6;39;3942;1;10;13;484;383;23;7;1;2586;6;2;460;15;8;2;2616;6;2;463;15;9;0;1382;6;4;509;11
11.11.19;16:00:00;1;335;4137;0;2;3;2574;6;8;418;12;3;2;1552;6;6;525;15;4;0;2142;3;0;200;12;5;120;5655;4;39;41;377;598;24;6;66;3938;4;23;22;451;330;24;7;7;2586;4;11;458;16;8;1;2616;4;4;480;15;9;2;1382;6;8;506;11
11.11.19;15:55:00;1;277;4109;0;2;48;2573;4;72;355;13;3;3;1551;6;10;530;15;4;20;2141;3;20;200;12;5;155;5644;4;54;58;377;599;24;6;86;3933;4;40;38;451;330;24;7;2;2585;3;9;487;16;8;9;2616;3;18;459;15;9;3;1382;6;6;538;11
11.11.19;15:50:00;1;277;4086;0;2;55;2569;4;82;367;13;3;4;1551;6;9;536;15;4;22;2140;3;23;198;12;5;171;5631;4;67;62;377;599;24;6;95;3925;4;50;47;451;330;24;7;12;2585;6;21;459;16;8;13;2615;6;22;468;16;9;2;1382;6;5;546;11
11.11.19;15:45:00;1;277;4063;0;2;63;2565;4;89;366;13;3;4;1551;6;10;537;15;4;23;2138;3;23;198;12;5;183;5617;4;76;70;377;599;24;6;106;3917;4;52;52;451;330;24;7;9;2584;6;14;480;16;8;8;2614;6;15;483;16;9;4;1382;3;7;538;11
11.11.19;15:40:00;1;287;4040;0;2;76;2560;4;103;359;13;3;5;1551;6;11;546;15;4;41;2136;3;42;198;12;5;214;5601;4;97;89;377;599;24;6;123;3909;4;59;53;451;330;24;7;50;2583;4;75;374;16;8;48;2613;4;75;392;16;9;4;1381;6;7;550;12
11.11.19;15:35:00;1;274;4015;0;2;122;2553;4;151;371;13;3;67;1550;4;105;476;16;4;72;2133;3;75;199;12;5;297;5583;4;140;116;377;598;24;6;166;3898;4;92;74;451;330;24;7;59;2579;4;101;467;16;8;76;2609;4;111;443;16;9;8;1381;6;13;556;12
11.11.19;15:30:00;1;258;3993;0;2;173;2543;4;202;384;13;3;100;1545;4;138;506;16;4;125;2127;3;130;219;12;5;388;5558;4;187;170;377;598;24;6;218;3884;4;127;103;451;330;24;7;132;2574;4;166;468;16;8;137;2603;4;168;452;16;9;58;1380;6;73;527;12
11.11.19;15:25:00;1;260;3971;0;2;173;2529;4;201;378;13;3;99;1536;4;139;514;16;4;129;2117;5;134;225;12;5;393;5526;4;194;168;377;599;24;6;225;3866;4;119;97;451;330;24;7;171;2563;4;195;465;16;8;154;2592;4;196;478;16;9;36;1376;4;45;543;12
11.11.19;15:20:00;1;295;3949;0;2;157;2515;4;188;381;14;3;91;1528;4;130;498;16;4;113;2106;5;117;226;12;5;361;5494;4;178;153;377;598;24;6;206;3847;4;92;80;451;345;24;7;142;2549;4;170;477;16;8;141;2580;4;178;460;16;9;41;1373;6;53;528;12
11.11.19;15:15:00;1;216;3925;0;2;205;2502;4;237;380;14;3;118;1521;4;156;509;16;4;156;2097;5;163;232;12;5;445;5463;4;222;188;401;599;24;6;325;3830;4;156;184;532;531;24;7;156;2538;4;187;462;16;8;151;2568;4;190;457;16;9;37;1369;6;46;442;10
11.11.19;15:10:00;1;216;3907;0;2;315;2485;4;350;393;14;3;191;1511;4;231;521;16;4;260;2084;5;271;242;12;5;702;5424;4;341;293;416;676;24;6;512;3801;4;241;262;590;576;24;7;255;2525;4;292;461;16;8;259;2555;4;295;448;16;9;135;1365;4;164;522;13
11.11.19;15:05:00;1;216;3888;0;2;326;2458;4;361;400;14;3;200;1495;4;240;514;16;4;268;2062;5;279;237;12;5;699;5366;4;342;294;423;664;24;6;517;3758;4;262;286;586;573;24;7;268;2504;4;298;468;16;8;268;2534;4;307;467;16;9;142;1354;4;173;515;13
11.11.19;15:00:00;1;216;3870;0;2;303;2431;4;340;394;14;3;185;1478;4;226;520;16;4;253;2040;5;264;239;12;5;679;5308;4;329;286;415;665;24;6;506;3714;4;236;254;581;571;24;7;249;2481;4;289;468;16;8;257;2511;4;292;483;16;9;138;1342;4;168;529;13
11.11.19;14:55:00;1;216;3852;0;2;291;2405;4;321;390;14;3;176;1462;4;216;505;16;4;236;2018;5;246;235;12;5;623;5252;4;307;265;400;629;24;6;473;3672;4;231;256;587;566;24;7;241;2460;4;273;456;16;8;242;2489;4;272;468;16;9;123;1330;4;153;525;13
11.11.19;14:50:00;1;216;3834;0;2;323;2381;4;359;404;14;3;198;1448;4;242;508;16;4;271;1999;5;283;237;12;5;709;5199;4;349;298;415;646;24;6;533;3632;4;264;281;588;577;24;7;282;2440;4;322;479;16;8;288;2469;4;327;472;16;9;155;1320;4;183;530;13
11.11.19;14:45:00;1;249;3816;0;2;304;2354;4;340;402;14;3;185;1431;4;226;519;16;4;249;1976;5;259;236;12;5;662;5140;4;317;282;420;672;24;6;494;3588;4;246;272;571;570;24;7;270;2416;4;321;464;16;8;282;2445;4;325;471;16;9;152;1307;4;181;531;13
11.11.19;14:40:00;1;307;3794;0;2;262;2329;4;295;385;14;3;157;1416;4;198;521;16;4;212;1955;5;221;233;12;5;580;5085;4;284;247;408;637;24;6;432;3547;4;212;232;573;570;24;7;287;2394;4;318;456;16;8;283;2422;4;318;477;16;9;152;1294;4;181;515;13
11.11.19;14:35:00;1;261;3768;0;2;247;2307;4;282;395;14;3;147;1403;4;188;516;16;4;190;1937;5;197;234;12;5;537;5038;4;270;225;404;607;24;6;407;3511;4;198;215;579;567;24;7;271;2370;4;297;462;17;8;262;2398;4;298;468;16;9;141;1281;4;170;521;13
11.11.19;14:30:00;1;225;3746;0;2;281;2286;4;315;389;14;3;170;1390;4;207;513;16;4;229;1921;5;239;234;12;5;604;4992;4;297;254;404;627;24;6;457;3477;4;218;241;588;564;24;7;224;2347;4;273;466;17;8;236;2377;4;272;483;16;9;128;1270;4;156;519;13
11.11.19;14:25:00;1;217;3727;0;2;296;2263;4;330;393;14;3;180;1376;4;219;514;17;4;246;1902;5;256;237;12;5;650;4941;4;319;274;416;655;24;6;489;3439;4;231;261;583;567;24;7;277;2329;4;336;480;17;8;290;2357;4;332;481;16;9;159;1259;4;188;520;13
11.11.19;14:20:00;1;216;3709;0;2;314;2238;4;350;401;14;3;193;1361;4;235;510;17;4;262;1882;5;273;236;13;5;678;4887;4;332;287;415;662;24;6;503;3398;4;259;280;587;566;24;7;285;2306;4;331;481;17;8;296;2333;4;335;483;16;9;160;1246;4;190;522;13
11.11.19;14:15:00;1;217;3691;0;2;346;2212;4;382;405;14;3;215;1345;4;254;506;17;4;286;1860;5;297;235;13;5;741;4830;4;367;321;413;682;24;6;568;3356;4;288;305;579;571;24;7;281;2282;4;325;474;17;8;293;2308;4;333;473;16;9;159;1232;4;187;518;13
11.11.19;14:10:00;1;220;3673;0;2;345;2184;4;382;408;14;3;215;1328;4;254;497;17;4;287;1837;5;299;236;13;5;752;4768;4;371;318;418;676;24;6;561;3309;4;275;301;580;573;24;7;355;2259;4;397;473;17;8;357;2284;4;395;487;16;9;194;1219;4;221;531;13
11.11.19;14:05:00;1;290;3654;0;2;428;2155;4;468;413;15;3;267;1310;4;309;514;17;4;361;1813;5;376;238;13;5;895;4705;4;444;387;417;674;24;6;669;3262;4;320;334;589;575;24;7;516;2229;4;547;488;17;8;505;2254;4;551;484;16;9;269;1203;4;303;533;14
11.11.19;14:00:00;1;342;3629;0;2;488;2119;4;530;407;15;3;300;1287;4;346;525;17;4;425;1782;5;442;241;13;5;1071;4626;4;544;458;424;686;24;6;804;3203;4;406;422;591;575;24;7;616;2187;4;663;483;16;8;629;2213;4;673;485;16;9;338;1181;4;378;535;14
11.11.19;13:55:00;1;318;3600;0;2;457;2078;4;499;406;15;3;283;1262;4;331;514;17;4;397;1747;5;413;240;13;5;999;4537;4;500;422;429;698;24;6;745;3136;4;372;389;598;576;24;7;580;2134;4;613;480;16;8;573;2159;4;618;483;16;9;307;1152;4;345;539;14
11.11.19;13:50:00;1;320;3574;0;2;541;2040;4;583;406;15;3;334;1238;4;380;516;17;4;458;1713;5;477;241;13;5;1126;4455;4;567;482;424;694;24;6;833;3074;4;399;413;595;587;24;7;521;2086;4;567;485;16;8;525;2111;4;569;485;16;9;281;1126;4;318;537;14
11.11.19;13:45:00;1;335;3547;0;2;614;1995;4;657;407;15;3;385;1211;4;432;514;17;4;542;1675;5;564;244;13;5;1337;4360;4;665;570;426;685;24;6;1001;3003;4;497;513;609;573;24;7;702;2042;4;743;497;16;8;704;2067;4;750;492;16;9;377;1103;4;418;533;14